Location: Godiavel Galaoual
(15.2485°N, 12.6604°W)
Time: 02:05:10
(UTC+00:00)

Transit 4A - Pass Details

Date: 22 June 2021
Orbit: 872 x 972 km, 66.8° (Epoch: 29 July)

Event Time Altitude Azimuth Distance (km) Brightness Sun altitude
Rises 20:53:34 0° 311° (NW) 3,471 12.4 -19.9°
Reaches altitude 10° 20:56:54 10° 292° (WNW) 2,545 11.3 -20.6°
Maximum altitude 21:00:35 17° 253° (WSW) 2,092 10.2 -21.3°
Drops below altitude 10° 21:04:19 10° 214° (SW) 2,581 10.2 -22.1°
Enters shadow 21:07:43 - 195° (SSW) 3,529 10.7 -22.8°
Sets 21:07:46 0° 195° (SSW) 3,542 - -22.8°
